When you browse on this site, cookies collect data to enhance your experience and personalize the content and advertising you see.
Visit our Privacy Policy to learn more. By continuing to use the site, you agree to this use of cookies and data.
  • In Österreich
  • Länderverzeichnis
  • Für 7 Tage
  • Wassertemperatur
  • Satellitenkarten
  • Wetterkarte
  • News
  • Widgets
  • user-avatar
    Anmelden

    Stündliche Wetter Sumgayit

    Heute, 26 Mai, Sonntag

    Zeit Temperatur Niederschläge Wind Luftdruck Luftfeuchtigkeit
    00:00 +24°C° 0 mm 6 m/S 736 mmHg 53%
    01:00 +24°C° 0 mm 6 m/S 735 mmHg 52%
    02:00 +24°C° 0 mm 6 m/S 735 mmHg 51%
    03:00 +23°C° 0 mm 7 m/S 736 mmHg 48%
    04:00 +23°C° 0 mm 6 m/S 736 mmHg 45%
    05:00 +25°C° 0 mm 5 m/S 736 mmHg 43%
    06:00 +25°C° 0 mm 3 m/S 737 mmHg 41%
    07:00 +26°C° 0 mm 3 m/S 737 mmHg 40%
    08:00 +27°C° 0 mm 3 m/S 737 mmHg 38%
    09:00 +28°C° 0 mm 5 m/S 737 mmHg 42%
    10:00 +28°C° 0 mm 5 m/S 737 mmHg 41%
    11:00 +29°C° 0 mm 5 m/S 737 mmHg 39%
    12:00 +30°C° 0 mm 5 m/S 737 mmHg 38%
    13:00 +30°C° 0 mm 6 m/S 737 mmHg 40%
    14:00 +29°C° 0 mm 7 m/S 737 mmHg 41%
    15:00 +29°C° 0 mm 7 m/S 736 mmHg 44%
    16:00 +27°C° 1.3 mm 7 m/S 737 mmHg 50%
    17:00 +24°C° 1.3 mm 7 m/S 737 mmHg 56%
    18:00 +23°C° 1.3 mm 7 m/S 737 mmHg 62%
    19:00 +23°C° 0.8 mm 7 m/S 737 mmHg 62%
    20:00 +23°C° 0.8 mm 7 m/S 737 mmHg 62%
    21:00 +23°C° 0.8 mm 7 m/S 737 mmHg 62%
    22:00 +23°C° 0.2 mm 6 m/S 738 mmHg 62%
    23:00 +22°C° 0.2 mm 5 m/S 738 mmHg 63%

    Morgen, 27 Mai, Montag

    Zeit Temperatur Niederschläge Wind Luftdruck Luftfeuchtigkeit
    00:00 +22°C° 0.2 mm 5 m/S 739 mmHg 64%
    01:00 +22°C° 0.1 mm 4 m/S 739 mmHg 65%
    02:00 +21°C° 0.1 mm 3 m/S 739 mmHg 66%
    03:00 +21°C° 0.1 mm 3 m/S 739 mmHg 67%
    04:00 +21°C° 0 mm 4 m/S 739 mmHg 64%
    05:00 +22°C° 0 mm 5 m/S 740 mmHg 61%
    06:00 +22°C° 0 mm 6 m/S 740 mmHg 58%
    07:00 +23°C° 0 mm 7 m/S 740 mmHg 54%
    08:00 +24°C° 0 mm 8 m/S 741 mmHg 51%
    09:00 +26°C° 0 mm 8 m/S 741 mmHg 47%
    10:00 +26°C° 0 mm 8 m/S 741 mmHg 47%
    11:00 +26°C° 0 mm 8 m/S 741 mmHg 46%
    12:00 +27°C° 0 mm 8 m/S 742 mmHg 46%
    13:00 +27°C° 0 mm 8 m/S 742 mmHg 47%
    14:00 +26°C° 0 mm 8 m/S 741 mmHg 48%
    15:00 +26°C° 0 mm 8 m/S 741 mmHg 49%
    16:00 +24°C° 0 mm 8 m/S 741 mmHg 49%
    17:00 +24°C° 0 mm 8 m/S 742 mmHg 49%
    18:00 +23°C° 0 mm 8 m/S 742 mmHg 50%
    19:00 +22°C° 0 mm 7 m/S 742 mmHg 50%
    20:00 +22°C° 0 mm 5 m/S 742 mmHg 50%
    21:00 +22°C° 0 mm 4 m/S 743 mmHg 50%
    22:00 +21°C° 0 mm 3 m/S 743 mmHg 52%
    23:00 +21°C° 0 mm 2 m/S 743 mmHg 54%

    übermorgen, 28 Mai, Dienstag

    Zeit Temperatur Niederschläge Wind Luftdruck Luftfeuchtigkeit
    00:00 +22°C° 0 mm 1 m/S 743 mmHg 56%
    01:00 +22°C° 0 mm 1 m/S 743 mmHg 57%
    02:00 +21°C° 0 mm 1 m/S 743 mmHg 58%
    03:00 +21°C° 0 mm 1 m/S 743 mmHg 59%
    04:00 +22°C° 0 mm 1 m/S 743 mmHg 56%
    05:00 +22°C° 0 mm 1 m/S 743 mmHg 54%
    06:00 +23°C° 0 mm 1 m/S 743 mmHg 51%
    07:00 +24°C° 0 mm 1 m/S 743 mmHg 48%
    08:00 +25°C° 0 mm 2 m/S 744 mmHg 44%
    09:00 +26°C° 0 mm 3 m/S 744 mmHg 41%
    10:00 +26°C° 0 mm 3 m/S 744 mmHg 41%
    11:00 +27°C° 0 mm 4 m/S 744 mmHg 42%
    12:00 +27°C° 0 mm 5 m/S 744 mmHg 43%
    13:00 +27°C° 0 mm 5 m/S 743 mmHg 44%
    14:00 +27°C° 0 mm 5 m/S 743 mmHg 46%
    15:00 +27°C° 0 mm 5 m/S 743 mmHg 47%
    16:00 +26°C° 0 mm 5 m/S 743 mmHg 50%
    17:00 +24°C° 0 mm 6 m/S 743 mmHg 53%
    18:00 +24°C° 0 mm 6 m/S 743 mmHg 56%
    19:00 +23°C° 0 mm 6 m/S 743 mmHg 58%
    20:00 +22°C° 0 mm 5 m/S 743 mmHg 60%
    21:00 +22°C° 0 mm 5 m/S 743 mmHg 62%
    22:00 +22°C° 0 mm 4 m/S 743 mmHg 63%
    23:00 +22°C° 0 mm 4 m/S 743 mmHg 63%

    29 Mai, Mittwoch

    Zeit Temperatur Niederschläge Wind Luftdruck Luftfeuchtigkeit
    00:00 +21°C° 0 mm 3 m/S 743 mmHg 64%
    01:00 +21°C° 0 mm 2 m/S 743 mmHg 65%
    02:00 +21°C° 0 mm 2 m/S 743 mmHg 67%
    03:00 +22°C° 0 mm 1 m/S 743 mmHg 68%
    04:00 +22°C° 0 mm 1 m/S 743 mmHg 66%
    05:00 +22°C° 0 mm 1 m/S 743 mmHg 64%
    06:00 +22°C° 0 mm 1 m/S 743 mmHg 62%
    07:00 +23°C° 0 mm 1 m/S 743 mmHg 58%
    08:00 +24°C° 0 mm 1 m/S 743 mmHg 54%
    09:00 +25°C° 0 mm 1 m/S 743 mmHg 50%
    10:00 +25°C° 0 mm 2 m/S 743 mmHg 48%
    11:00 +26°C° 0 mm 2 m/S 743 mmHg 45%
    12:00 +27°C° 0 mm 3 m/S 743 mmHg 42%
    13:00 +27°C° 0.2 mm 3 m/S 743 mmHg 43%
    14:00 +27°C° 0.2 mm 3 m/S 742 mmHg 43%
    15:00 +27°C° 0.2 mm 4 m/S 742 mmHg 44%
    16:00 +26°C° 0.3 mm 3 m/S 742 mmHg 44%
    17:00 +26°C° 0.3 mm 3 m/S 742 mmHg 45%
    18:00 +25°C° 0.3 mm 2 m/S 742 mmHg 46%
    19:00 +25°C° 0 mm 2 m/S 742 mmHg 47%
    20:00 +25°C° 0 mm 2 m/S 742 mmHg 48%
    21:00 +24°C° 0 mm 1 m/S 742 mmHg 49%
    22:00 +24°C° 0 mm 1 m/S 742 mmHg 51%
    23:00 +24°C° 0 mm 1 m/S 742 mmHg 54%

    30 Mai, Donnerstag

    Zeit Temperatur Niederschläge Wind Luftdruck Luftfeuchtigkeit
    00:00 +21°C° 0 mm 0 m/S 742 mmHg 57%
    01:00 +21°C° 0 mm 0 m/S 742 mmHg 58%
    02:00 +20°C° 0 mm 0 m/S 741 mmHg 60%
    03:00 +22°C° 0 mm 1 m/S 741 mmHg 61%
    04:00 +22°C° 0 mm 1 m/S 741 mmHg 59%
    05:00 +23°C° 0 mm 1 m/S 742 mmHg 57%
    06:00 +23°C° 0 mm 1 m/S 742 mmHg 56%
    07:00 +24°C° 0 mm 1 m/S 742 mmHg 51%
    08:00 +25°C° 0 mm 1 m/S 742 mmHg 47%
    09:00 +26°C° 0 mm 1 m/S 742 mmHg 42%
    10:00 +27°C° 0 mm 1 m/S 742 mmHg 40%
    11:00 +28°C° 0 mm 2 m/S 742 mmHg 37%
    12:00 +28°C° 0 mm 2 m/S 741 mmHg 35%
    13:00 +28°C° 0.1 mm 3 m/S 741 mmHg 35%
    14:00 +28°C° 0.1 mm 3 m/S 741 mmHg 36%
    15:00 +28°C° 0.1 mm 4 m/S 741 mmHg 37%
    16:00 +27°C° 0.3 mm 4 m/S 741 mmHg 39%
    17:00 +27°C° 0.3 mm 3 m/S 741 mmHg 41%
    18:00 +26°C° 0.3 mm 3 m/S 741 mmHg 43%
    19:00 +26°C° 0.1 mm 2 m/S 741 mmHg 45%
    20:00 +25°C° 0.1 mm 2 m/S 741 mmHg 47%
    21:00 +25°C° 0.1 mm 2 m/S 741 mmHg 48%
    22:00 +24°C° 0 mm 2 m/S 741 mmHg 50%
    23:00 +24°C° 0 mm 2 m/S 741 mmHg 52%

    31 Mai, Freitag

    Zeit Temperatur Niederschläge Wind Luftdruck Luftfeuchtigkeit
    00:00 +24°C° 0 mm 2 m/S 740 mmHg 54%
    01:00 +24°C° 0 mm 1 m/S 740 mmHg 55%
    02:00 +23°C° 0 mm 1 m/S 740 mmHg 57%
    03:00 +23°C° 0 mm 1 m/S 740 mmHg 58%
    04:00 +23°C° 0 mm 1 m/S 740 mmHg 56%
    05:00 +24°C° 0 mm 1 m/S 740 mmHg 54%
    06:00 +24°C° 0 mm 1 m/S 740 mmHg 52%
    07:00 +25°C° 0 mm 2 m/S 740 mmHg 47%
    08:00 +26°C° 0 mm 2 m/S 740 mmHg 43%
    09:00 +27°C° 0 mm 3 m/S 741 mmHg 38%
    10:00 +28°C° 0 mm 3 m/S 740 mmHg 36%
    11:00 +29°C° 0 mm 3 m/S 740 mmHg 34%
    12:00 +29°C° 0 mm 3 m/S 740 mmHg 32%
    13:00 +30°C° 0 mm 4 m/S 739 mmHg 33%
    14:00 +30°C° 0 mm 5 m/S 739 mmHg 34%
    15:00 +30°C° 0 mm 5 m/S 739 mmHg 34%
    16:00 +29°C° 0 mm 5 m/S 739 mmHg 37%
    17:00 +28°C° 0 mm 5 m/S 739 mmHg 40%
    18:00 +27°C° 0 mm 5 m/S 739 mmHg 42%
    19:00 +26°C° 0 mm 4 m/S 739 mmHg 45%
    20:00 +26°C° 0 mm 3 m/S 739 mmHg 47%
    21:00 +25°C° 0 mm 2 m/S 739 mmHg 49%
    22:00 +25°C° 0 mm 2 m/S 739 mmHg 51%
    23:00 +24°C° 0 mm 1 m/S 739 mmHg 53%
    Mehr zeigen